User: anonymous   Login
Location: Unspecified
(0.0000°N, 0.0000°E)
Time: 23:18:45
(UTC+01:00)
Language:

SWIFT - Orbit

View from above orbital plane
View from above orbital plane
View from above satellite
View from above satellite

Ground track
Ground track

The orbit data is extracted from the following two-line orbital elements,

1 28485U 04047A   15024.53579151  .00002910  00000-0  19036-3 0  8577
2 28485 020.5575 119.7255 0012179 009.0857 350.9796 15.00641140556469
Epoch (UTC): 24 January 2015 12:51:32
Eccentricity: 0.0012179
inclination: 20.5575°
perigee height: 556 km
apogee height: 573 km
right ascension of ascending node: 119.7255°
argument of perigee: 9.0857°
revolutions per day: 15.00641140
mean anomaly at epoch: 350.9796°
orbit number at epoch: 55646

The dashed part of the orbit path shows where the satellite is in the earth's shadow,  

DLR